RH
66 67 67 68 70 71 74 76 79 80 79 79 80 81 82 87 88 39 27 30 33 68 56 21 17 16 13 15 14 11 12 13 19 15 12 9 12 10 10 11 11 28 40 37 29
67 67 68 69 70 72 74 77 80 81 80 80 82 83 85 88 74 34 41 53 54 62 16 16 15 10 14 13 12 11 16 26 17 12 11 10 11 11 11 11 12 12 21 35 31
67 69 69 70 71 72 74 78 81 81 82 82 83 84 87 88 60 21 48 55 51 54 24 18 14 11 17 13 12 12 14 13 9 11 11 11 10 11 10 13 13 14 12 15 33
70 69 70 71 72 73 74 80 81 82 82 83 83 83 87 80 41 19 56 48 56 34 18 16 12 16 17 15 11 14 12 10 9 6 10 10 10 10 11 11 10 11 23 27 29
72 71 71 72 73 74 75 79 82 83 83 82 83 82 82 57 30 14 49 38 25 15 15 12 11 13 19 13 13 14 11 9 8 6 7 10 10 11 10 8 12 24 27 31 33
71 71 72 74 74 73 75 80 84 83 83 82 82 82 81 57 13 13 11 10 9 8 9 10 9 9 10 13 13 12 8 7 9 7 9 10 11 10 12 12 24 27 30 33 36
70 74 73 74 75 75 76 80 85 84 82 81 80 59 56 43 14 13 11 11 10 9 12 10 10 13 12 18 12 8 10 9 9 10 12 14 18 17 12 23 28 31 33 34 34
70 73 77 79 79 80 81 84 83 84 82 79 77 58 60 22 21 11 12 11 9 9 11 10 11 12 15 14 10 11 12 16 11 11 8 18 29 20 22 26 31 33 33 36 36
72 76 78 80 81 81 81 85 84 85 83 78 70 64 50 24 14 12 15 12 10 11 13 7 12 15 13 14 13 19 15 14 13 9 8 22 31 26 23 26 30 33 34 35 39
75 76 77 79 78 80 82 82 76 77 55 36 30 50 35 14 13 12 13 12 13 13 15 15 16 16 16 16 17 14 11 14 13 10 18 28 31 25 25 28 32 36 36 36 40
75 76 78 77 78 75 85 79 49 55 49 32 23 22 15 13 11 13 12 15 16 17 17 15 19 20 15 14 10 9 10 15 14 10 23 27 32 31 30 33 37 38 40 38 40
79 80 80 78 77 76 93 78 46 50 63 35 24 16 13 11 14 13 12 17 19 20 17 20 21 16 12 9 9 9 11 16 23 20 25 31 37 33 32 35 36 37 41 41 40
80 80 81 81 77 84 79 50 44 54 75 37 26 16 15 14 16 14 14 15 18 21 20 20 19 13 12 12 11 12 15 22 26 25 26 30 39 36 32 31 32 35 38 40 40
85 81 82 82 79 71 68 51 53 65 87 35 22 16 13 12 19 14 16 20 16 17 18 22 17 15 14 12 17 20 14 17 23 31 42 30 55 38 35 35 35 40 46 45 42
87 83 82 81 86 80 57 63 62 78 94 28 16 12 12 16 20 18 16 20 24 21 21 24 18 16 16 19 17 20 16 14 18 30 36 33 43 40 32 40 41 44 40 41 39
83 88 82 74 74 62 55 64 89 89 86 26 17 18 18 16 18 17 18 20 20 20 18 17 14 19 22 19 16 17 18 17 18 22 41 29 31 42 37 37 39 37 36 34 36
79 86 87 73 83 58 60 92 91 93 28 20 23 18 18 18 16 19 20 25 25 30 29 20 20 21 18 20 20 20 27 39 36 38 40 20 24 38 28 30 36 36 36 36 36
78 85 85 74 76 72 89 97 94 55 36 16 16 19 21 17 17 22 21 24 21 20 28 30 32 21 18 20 23 23 28 55 45 46 31 17 44 43 30 29 30 29 32 34 37
78 94 88 77 80 90 93 97 85 60 25 23 17 23 23 17 19 24 26 23 19 18 30 29 25 18 16 18 20 24 28 26 43 39 42 44 41 35 32 31 30 32 33 38 38
97 97 89 69 78 92 96 83 76 45 30 25 32 23 28 20 25 30 29 25 19 16 27 35 34 19 19 21 21 32 29 40 47 48 46 48 46 49 39 35 32 34 37 37 36
99 89 79 82 88 96 95 87 56 41 36 34 31 26 22 26 27 33 30 23 17 25 25 33 36 31 25 29 29 35 41 36 37 49 51 60 54 34 36 33 34 33 34 38 37
89 97 81 89 100 95 95 68 52 41 35 39 34 31 31 25 31 31 28 30 24 28 34 38 41 46 29 24 24 31 35 38 60 45 50 62 56 28 33 32 34 32 32 36 34
97 95 72 85 99 99 84 64 50 52 50 41 39 28 29 33 42 30 30 27 26 30 37 34 52 53 40 32 29 34 27 31 48 53 46 74 65 35 32 32 31 35 34 33 35
98 98 96 94 94 92 88 83 67 45 48 46 46 44 32 36 34 39 40 36 31 36 50 45 46 51 57 42 43 40 33 32 50 81 63 51 51 40 37 36 34 33 33 35 36
96 94 86 98 98 97 86 77 82 70 42 44 46 48 43 50 42 40 44 38 34 52 41 49 61 47 40 29 26 30 31 33 45 46 56 50 44 37 34 34 31 29 30 32 32
100 99 89 92 72 85 97 83 77 64 66 51 52 43 38 45 44 43 45 48 46 45 46 48 60 50 45 26 26 34 26 29 33 32 31 39 40 31 30 31 30 28 30 31 31
99 93 99 83 82 83 86 74 87 63 57 54 53 52 41 35 37 38 42 43 46 52 56 55 68 70 62 38 40 52 41 26 28 27 32 40 28 24 28 26 32 33 30 32 33
Wind_Speed
19 19 20 20 20 20 20 19 19 20 19 20 18 18 20 20 24 5 5 2 3 8 7 8 7 9 5 5 4 1 5 4 5 4 5 9 16 15 12 15 18 9 9 8 9
19 19 20 20 20 20 20 20 21 20 20 20 19 17 16 17 8 9 4 4 5 3 6 7 9 12 3 5 4 4 4 3 2 5 10 12 14 11 13 13 11 10 7 10 8
19 20 20 21 21 21 20 21 21 21 20 19 18 16 13 13 6 2 7 7 6 2 3 4 10 5 4 3 6 4 4 6 6 5 9 10 18 6 16 12 6 6 6 7 7
20 21 21 22 22 22 21 20 21 21 19 18 17 14 12 1 4 3 8 7 5 2 3 4 6 2 3 4 6 5 7 7 3 7 6 10 8 10 10 6 7 11 19 24 21
20 21 21 22 22 22 22 22 22 21 18 16 14 10 6 2 9 7 7 6 4 4 8 8 7 4 4 4 3 9 6 7 7 5 5 12 12 9 8 6 15 24 24 22 21
22 22 23 24 24 23 22 22 22 21 17 13 11 7 1 4 3 6 4 4 6 4 7 8 6 6 8 5 7 9 11 7 6 4 6 16 9 9 7 16 23 24 22 22 23
22 22 23 25 25 25 24 23 22 21 16 10 8 4 4 13 2 3 3 3 2 4 6 7 5 4 7 1 5 13 11 8 5 2 6 12 12 8 9 22 23 21 20 21 21
22 22 22 23 25 25 25 25 24 20 14 8 4 4 7 7 8 7 4 4 5 7 5 6 6 5 3 3 4 6 7 5 4 1 4 8 4 7 14 22 19 18 17 18 19
22 22 22 23 25 26 25 29 24 17 9 4 1 3 8 1 4 4 1 4 4 3 3 6 3 3 4 7 3 2 6 8 4 5 4 8 7 5 16 20 17 14 13 15 16
21 22 23 24 25 26 28 30 16 6 4 6 6 2 6 7 5 2 3 6 4 5 2 2 2 2 1 5 10 8 6 5 8 9 11 13 8 9 14 18 14 11 11 15 16
21 22 24 26 26 26 16 8 5 3 2 8 7 6 4 5 4 6 6 3 3 3 5 5 3 8 9 8 7 10 6 7 7 9 21 10 12 8 8 10 10 8 9 13 15
19 22 25 27 30 27 5 4 4 3 8 12 20 15 11 6 6 7 7 6 4 6 6 2 8 8 7 14 13 11 6 11 18 20 21 12 10 8 9 7 9 10 9 10 12
18 21 24 29 32 9 5 6 7 9 4 9 13 13 7 3 7 9 9 5 6 7 7 6 2 4 5 4 6 6 19 18 26 17 17 17 6 8 7 9 11 9 9 9 12
19 19 22 29 7 7 4 10 9 5 3 7 10 7 13 7 6 4 2 3 6 9 7 5 2 4 4 4 5 6 12 20 22 22 16 8 6 10 13 11 11 9 9 9 10
23 17 18 19 5 6 10 10 9 4 4 3 7 2 9 7 6 5 3 4 6 2 6 4 7 5 4 2 4 5 8 16 14 11 7 15 8 8 15 13 13 12 11 9 9
22 21 15 7 7 6 12 14 3 8 9 4 6 6 8 12 7 5 4 5 5 4 7 6 3 3 2 4 8 3 10 9 5 5 5 16 9 13 16 18 14 13 12 11 9
21 23 13 6 6 11 13 5 6 5 7 7 6 10 9 10 12 8 7 5 5 5 4 4 2 1 5 9 4 4 8 4 1 3 5 8 10 6 14 18 20 17 13 10 9
22 24 8 8 7 5 4 0 6 9 9 7 8 9 12 10 13 9 8 6 8 5 7 6 4 7 3 4 7 6 6 7 8 6 5 4 5 2 16 17 19 17 14 11 9
19 4 5 7 10 4 2 8 10 6 7 4 4 7 8 14 8 8 8 11 8 11 6 7 3 5 10 1 6 7 8 3 1 3 5 5 5 7 14 14 16 16 13 10 9
5 4 7 9 6 3 3 9 7 10 11 7 4 9 9 13 10 10 8 9 15 12 6 1 6 5 4 5 4 1 2 4 1 7 6 7 9 11 18 17 16 15 12 9 8
3 5 6 5 6 3 8 8 9 17 16 7 5 5 9 9 10 8 5 8 14 4 8 2 6 5 6 6 6 4 3 4 5 5 6 7 6 15 21 20 17 13 13 10 9
4 4 3 3 2 4 4 3 8 18 13 14 8 4 5 9 9 9 13 7 6 8 8 1 6 5 5 1 1 2 5 5 5 4 3 5 4 16 17 15 15 14 13 10 10
4 4 8 3 6 6 6 12 14 18 15 6 7 5 7 6 4 10 8 9 11 7 7 4 2 5 2 3 2 4 5 7 5 3 4 7 4 7 15 13 12 11 10 10 9
2 5 4 2 3 6 9 10 17 12 21 21 17 19 12 8 7 8 4 2 5 5 7 2 4 8 8 8 8 6 6 4 7 5 3 5 12 12 13 12 10 9 9 9 9
1 4 4 5 3 8 11 13 18 12 15 16 8 19 15 5 8 5 5 6 5 2 4 3 4 5 3 6 6 15 13 10 7 6 6 13 19 18 17 16 14 10 10 11 9
3 2 5 5 10 14 13 11 20 21 18 21 17 19 13 8 8 7 9 5 7 3 6 2 3 4 2 3 6 11 11 11 9 7 4 11 7 14 15 10 11 13 12 10 9
2 4 7 5 5 9 5 11 14 17 21 21 22 16 18 13 9 7 10 12 10 10 6 7 4 4 4 3 6 7 10 17 9 8 9 7 7 13 16 15 13 10 10 10 12
Wind_Direction
350 349 348 343 344 341 338 333 332 330 329 327 327 329 328 325 314 254 242 201 280 317 338 293 280 264 264 240 219 333 49 35 358 94 69 27 91 78 65 73 59 59 101 125 126
349 347 345 341 341 340 336 332 330 327 326 327 326 328 328 330 297 252 182 191 244 8 8 346 321 333 248 229 271 109 92 114 345 15 96 67 60 88 83 59 48 54 53 121 127
349 345 343 340 339 338 334 330 326 325 325 327 326 326 327 332 274 207 200 208 228 135 229 275 278 297 287 316 232 207 162 157 8 34 102 95 64 54 86 69 67 66 56 62 56
346 344 341 339 337 335 332 327 324 322 324 327 326 326 324 305 261 185 199 216 236 210 280 279 265 269 267 228 251 137 69 95 37 19 84 93 106 75 78 102 120 69 67 58 49
343 342 340 337 334 331 332 325 320 318 321 328 328 333 359 216 258 200 200 243 240 226 226 244 264 233 248 278 244 109 116 80 102 21 51 97 82 107 85 118 81 70 60 52 49
342 339 338 336 332 328 328 320 314 310 313 325 324 316 105 241 227 163 127 272 246 281 288 255 246 281 280 281 159 131 106 102 115 64 56 86 58 82 30 83 77 71 65 57 51
343 342 339 334 328 325 321 314 307 306 305 316 312 283 267 247 21 12 270 203 301 288 289 314 344 19 321 70 352 99 90 66 21 113 116 83 35 43 69 82 79 74 71 65 54
344 342 336 331 326 321 321 310 304 303 298 299 266 268 249 264 224 244 322 274 201 264 268 324 337 274 248 113 18 107 93 106 276 112 357 89 93 14 86 86 81 78 75 72 62
338 339 336 331 326 322 323 309 301 292 248 181 252 216 269 222 242 192 251 293 174 255 332 318 335 233 359 113 57 313 160 126 170 197 117 94 115 49 91 89 86 81 79 79 73
335 335 334 329 326 325 324 301 285 310 212 194 245 275 252 236 158 244 161 285 235 191 198 231 249 180 130 133 193 183 155 159 154 194 105 107 116 85 95 96 99 94 91 87 83
332 331 329 329 325 325 337 345 8 347 270 214 167 234 137 137 128 227 175 248 287 217 205 204 144 205 204 217 216 179 162 143 186 154 113 115 111 109 91 87 91 94 94 97 94
330 329 327 325 323 320 300 305 27 252 302 271 255 264 258 149 205 220 145 177 182 215 235 177 224 227 232 216 226 255 197 143 113 118 117 116 100 93 90 103 109 99 93 96 98
328 328 327 324 320 321 273 0 13 23 256 271 225 231 229 152 256 188 168 199 214 226 238 177 290 164 241 185 187 191 149 140 134 120 113 116 98 120 120 109 105 102 103 95 100
329 326 328 332 340 341 344 357 341 11 324 260 181 225 220 188 245 124 174 231 220 216 195 151 250 214 228 210 88 104 164 140 139 133 150 162 166 169 156 151 133 119 101 97 94
339 322 327 335 273 308 349 345 323 58 6 200 156 211 141 191 138 223 211 280 249 294 116 187 179 211 212 24 37 169 160 153 157 134 127 213 114 183 160 152 136 121 109 99 99
333 328 325 331 317 271 329 325 348 52 257 226 131 179 176 219 192 143 194 216 263 128 82 161 191 37 94 33 99 141 85 65 131 166 194 210 178 181 176 157 138 124 117 112 106
324 327 307 293 252 329 323 330 58 161 285 199 168 173 202 193 231 161 208 210 193 123 138 67 75 8 130 83 50 72 96 81 33 246 206 196 191 206 169 146 136 130 125 120 117
322 314 263 243 253 315 325 324 190 216 235 28 148 178 196 197 216 175 191 222 249 216 127 166 192 163 214 170 169 196 155 152 177 183 154 206 143 163 118 119 128 129 136 133 124
321 284 264 246 218 165 259 212 204 220 207 218 214 171 198 222 182 168 218 211 221 222 156 170 243 145 168 117 121 207 230 179 154 112 92 123 47 75 121 125 129 136 133 140 140
318 286 261 232 194 128 211 231 234 233 292 322 279 190 189 215 191 167 195 211 224 207 131 185 122 187 115 45 291 191 274 146 284 165 171 155 179 171 160 155 150 145 145 146 139
287 306 281 78 105 159 223 228 258 269 288 292 302 230 196 206 180 183 235 250 209 126 90 81 113 181 118 202 178 169 221 202 164 148 165 145 236 166 169 161 154 153 151 142 130
312 281 313 84 184 232 219 229 271 270 264 260 302 287 282 227 176 200 207 228 104 126 137 138 130 140 191 288 123 215 205 177 127 213 171 119 271 148 149 153 154 152 137 135 131
288 284 293 193 247 231 281 290 259 271 276 282 269 240 271 247 245 189 208 226 149 132 158 180 138 106 148 303 214 219 220 187 112 85 200 123 211 125 130 128 127 136 143 141 140
311 312 300 203 248 284 289 256 258 291 247 264 278 296 276 271 269 207 136 64 112 83 93 33 193 155 178 210 157 185 204 204 131 113 215 172 140 143 139 140 135 140 145 147 140
231 249 293 308 294 273 256 274 288 278 273 273 264 244 257 243 270 229 100 100 88 115 88 112 178 188 99 28 169 180 190 194 149 167 141 164 157 167 161 157 164 162 149 136 145
300 287 309 288 316 308 275 241 248 268 276 273 254 265 272 227 206 224 131 137 175 175 148 193 234 153 112 43 358 182 199 190 168 175 165 155 177 166 157 148 141 149 149 153 146
326 277 273 270 276 282 262 299 296 264 262 268 274 284 258 238 241 243 164 150 151 143 182 160 184 107 185 151 38 332 220 187 181 173 161 156 178 137 144 148 152 154 160 148 122